owner,sensor,date,latitude,longitude,vertical_datum,wind_speed,wind_to_direction,wind_speed_of_gust,qcFlag 
ADCP,ioos:station:wmo:42369:1,2012-06-01T00:00:00Z,27.2070,-90.2830,60.4,1.5,230.0,99.0,'11111222,11111222,11144222' 
ADCP,ioos:station:wmo:42369:1,2012-06-01T00:20:00Z,27.2070,-90.2830,60.4,1.7,236.0,99.0,'11111222,11111222,11144222' 
ADCP,ioos:station:wmo:42369:1,2012-06-01T00:40:00Z,27.2070,-90.2830,60.4,1.9,225.0,99.0,'11111222,11111222,11144222' 
ADCP,ioos:station:wmo:42369:1,2012-06-01T01:00:00Z,27.2070,-90.2830,60.4,1.9,235.0,99.0,'11111222,11111222,11144222' 
ADCP,ioos:station:wmo:42369:1,2012-06-01T01:20:00Z,27.2070,-90.2830,60.4,2.0,210.0,99.0,'11111222,11111222,11144222' 
ADCP,ioos:station:wmo:42369:1,2012-06-01T01:40:00Z,27.2070,-90.2830,60.4,2.3,206.0,99.0,'11111222,11111222,11144222' 
ADCP,ioos:station:wmo:42369:1,2012-06-01T02:00:00Z,27.2070,-90.2830,60.4,1.3,227.0,99.0,'11111222,11111222,11144222' 
ADCP,ioos:station:wmo:42369:1,2012-06-01T02:20:00Z,27.2070,-90.2830,60.4,2.5,202.0,99.0,'11111222,11111222,11144222' 
ADCP,ioos:station:wmo:42369:1,2012-06-01T02:40:00Z,27.2070,-90.2830,60.4,3.2,184.0,99.0,'11111222,11111222,11144222' 
ADCP,ioos:station:wmo:42369:1,2012-06-01T03:00:00Z,27.2070,-90.2830,60.4,4.0,180.0,99.0,'11111222,11111222,11144222' 
ADCP,ioos:station:wmo:42369:1,2012-06-01T03:20:00Z,27.2070,-90.2830,60.4,4.9,179.0,99.0,'11111222,11111222,11144222' 
ADCP,ioos:station:wmo:42369:1,2012-06-01T03:40:00Z,27.2070,-90.2830,60.4,4.3,177.0,99.0,'11111222,11111222,11144222' 
ADCP,ioos:station:wmo:42369:1,2012-06-01T04:00:00Z,27.2070,-90.2830,60.4,4.8,172.0,99.0,'11111222,11111222,11144222' 
ADCP,ioos:station:wmo:42369:1,2012-06-01T04:20:00Z,27.2070,-90.2830,60.4,4.6,167.0,99.0,'11111222,11111222,11144222' 
ADCP,ioos:station:wmo:42369:1,2012-06-01T04:40:00Z,27.2070,-90.2830,60.4,4.2,166.0,99.0,'11111222,11111222,11144222' 
ADCP,ioos:station:wmo:42369:1,2012-06-01T05:00:00Z,27.2070,-90.2830,60.4,3.9,168.0,99.0,'11111222,11111222,11144222' 
ADCP,ioos:station:wmo:42369:1,2012-06-01T05:20:00Z,27.2070,-90.2830,60.4,3.9,168.0,99.0,'11111222,11111222,11144222' 
ADCP,ioos:station:wmo:42369:1,2012-06-01T05:40:00Z,27.2070,-90.2830,60.4,3.9,168.0,99.0,'11111222,11111222,11144222' 
ADCP,ioos:station:wmo:42369:1,2012-06-01T06:00:00Z,27.2070,-90.2830,60.4,3.9,168.0,99.0,'11111222,11111222,11144222' 
ADCP,ioos:station:wmo:42369:1,2012-06-01T06:20:00Z,27.2070,-90.2830,60.4,4.0,179.0,99.0,'11111222,11111222,11144222' 
ADCP,ioos:station:wmo:42369:1,2012-06-01T06:40:00Z,27.2070,-90.2830,60.4,4.7,178.0,99.0,'11111222,11111222,11144222' 
ADCP,ioos:station:wmo:42369:1,2012-06-01T07:00:00Z,27.2070,-90.2830,60.4,6.0,176.0,99.0,'11111222,11111222,11144222' 
ADCP,ioos:station:wmo:42369:1,2012-06-01T07:20:00Z,27.2070,-90.2830,60.4,6.0,182.0,99.0,'11111222,11111222,11144222' 
ADCP,ioos:station:wmo:42369:1,2012-06-01T07:40:00Z,27.2070,-90.2830,60.4,4.3,187.0,99.0,'11111222,11111222,11144222' 
ADCP,ioos:station:wmo:42369:1,2012-06-01T08:00:00Z,27.2070,-90.2830,60.4,4.6,188.0,99.0,'11111222,11111222,11144222' 
ADCP,ioos:station:wmo:42369:1,2012-06-01T08:20:00Z,27.2070,-90.2830,60.4,4.0,196.0,99.0,'11111222,11111222,11144222' 
ADCP,ioos:station:wmo:42369:1,2012-06-01T08:40:00Z,27.2070,-90.2830,60.4,4.5,202.0,99.0,'11111222,11111222,11144222' 
ADCP,ioos:station:wmo:42369:1,2012-06-01T09:00:00Z,27.2070,-90.2830,60.4,4.3,198.0,99.0,'11111222,11111222,11144222' 
ADCP,ioos:station:wmo:42369:1,2012-06-01T09:20:00Z,27.2070,-90.2830,60.4,4.2,212.0,99.0,'11111222,11111222,11144222' 
ADCP,ioos:station:wmo:42369:1,2012-06-01T09:40:00Z,27.2070,-90.2830,60.4,1.3,229.0,99.0,'11111222,11111222,11144222' 
ADCP,ioos:station:wmo:42369:1,2012-06-01T10:00:00Z,27.2070,-90.2830,60.4,0.5,228.0,99.0,'11111222,11111222,11144222' 
ADCP,ioos:station:wmo:42369:1,2012-06-01T10:20:00Z,27.2070,-90.2830,60.4,0.6,245.0,99.0,'11111222,11111222,11144222' 
ADCP,ioos:station:wmo:42369:1,2012-06-01T10:40:00Z,27.2070,-90.2830,60.4,0.8,273.0,99.0,'11111222,11111222,11144222' 
ADCP,ioos:station:wmo:42369:1,2012-06-01T11:00:00Z,27.2070,-90.2830,60.4,1.6,248.0,99.0,'11111222,11111222,11144222' 
ADCP,ioos:station:wmo:42369:1,2012-06-01T11:20:00Z,27.2070,-90.2830,60.4,1.9,247.0,99.0,'11111222,11111222,11144222' 
ADCP,ioos:station:wmo:42369:1,2012-06-01T11:40:00Z,27.2070,-90.2830,60.4,1.4,257.0,99.0,'11111222,11111222,11144222' 
ADCP,ioos:station:wmo:42369:1,2012-06-01T12:00:00Z,27.2070,-90.2830,60.4,1.2,249.0,99.0,'11111222,11111222,11144222' 
ADCP,ioos:station:wmo:42369:1,2012-06-01T12:20:00Z,27.2070,-90.2830,60.4,1.3,227.0,99.0,'11111222,11111222,11144222' 
ADCP,ioos:station:wmo:42369:1,2012-06-01T12:40:00Z,27.2070,-90.2830,60.4,2.0,220.0,99.0,'11111222,11111222,11144222' 
ADCP,ioos:station:wmo:42369:1,2012-06-01T13:00:00Z,27.2070,-90.2830,60.4,2.5,211.0,99.0,'11111222,11111222,11144222' 
ADCP,ioos:station:wmo:42369:1,2012-06-01T13:20:00Z,27.2070,-90.2830,60.4,1.7,226.0,99.0,'11111222,11111222,11144222' 
ADCP,ioos:station:wmo:42369:1,2012-06-01T13:40:00Z,27.2070,-90.2830,60.4,0.3,218.0,99.0,'11111222,11111222,11144222' 
ADCP,ioos:station:wmo:42369:1,2012-06-01T14:00:00Z,27.2070,-90.2830,60.4,0.8,299.0,99.0,'11111222,11111222,11144222' 
ADCP,ioos:station:wmo:42369:1,2012-06-01T14:20:00Z,27.2070,-90.2830,60.4,0.7,278.0,99.0,'11111222,11111222,11144222' 
ADCP,ioos:station:wmo:42369:1,2012-06-01T14:40:00Z,27.2070,-90.2830,60.4,0.8,276.0,99.0,'11111222,11111222,11144222' 
ADCP,ioos:station:wmo:42369:1,2012-06-01T15:00:00Z,27.2070,-90.2830,60.4,0.7,264.0,99.0,'11111222,11111222,11144222' 
ADCP,ioos:station:wmo:42369:1,2012-06-01T15:20:00Z,27.2070,-90.2830,60.4,0.6,256.0,99.0,'11111222,11111222,11144222' 
ADCP,ioos:station:wmo:42369:1,2012-06-01T15:40:00Z,27.2070,-90.2830,60.4,0.2,222.0,99.0,'11111222,11111222,11144222' 
ADCP,ioos:station:wmo:42369:1,2012-06-01T16:00:00Z,27.2070,-90.2830,60.4,0.3,244.0,99.0,'11111222,11111222,11144222' 
ADCP,ioos:station:wmo:42369:1,2012-06-01T16:20:00Z,27.2070,-90.2830,60.4,1.9,174.0,99.0,'11111222,11111222,11144222' 
ADCP,ioos:station:wmo:42369:1,2012-06-01T16:40:00Z,27.2070,-90.2830,60.4,3.0,159.0,99.0,'11111222,11111222,11144222' 
ADCP,ioos:station:wmo:42369:1,2012-06-01T17:00:00Z,27.2070,-90.2830,60.4,1.2,269.0,99.0,'11111222,11111222,11144222' 
ADCP,ioos:station:wmo:42369:1,2012-06-01T17:20:00Z,27.2070,-90.2830,60.4,1.1,273.0,99.0,'11111222,11111222,11144222' 
ADCP,ioos:station:wmo:42369:1,2012-06-01T17:40:00Z,27.2070,-90.2830,60.4,3.0,301.0,99.0,'11111222,11111222,11144222' 
ADCP,ioos:station:wmo:42369:1,2012-06-01T18:00:00Z,27.2070,-90.2830,60.4,4.7,306.0,99.0,'11111222,11111222,11144222' 
ADCP,ioos:station:wmo:42369:1,2012-06-01T18:20:00Z,27.2070,-90.2830,60.4,4.1,309.0,99.0,'11111222,11111222,11144222' 
ADCP,ioos:station:wmo:42369:1,2012-06-01T18:40:00Z,27.2070,-90.2830,60.4,4.0,312.0,99.0,'11111222,11111222,11144222' 
ADCP,ioos:station:wmo:42369:1,2012-06-01T19:00:00Z,27.2070,-90.2830,60.4,3.6,305.0,99.0,'11111222,11111222,11144222' 
ADCP,ioos:station:wmo:42369:1,2012-06-01T19:20:00Z,27.2070,-90.2830,60.4,3.7,303.0,99.0,'11111222,11111222,11144222' 
ADCP,ioos:station:wmo:42369:1,2012-06-01T19:40:00Z,27.2070,-90.2830,60.4,3.1,302.0,99.0,'11111222,11111222,11144222' 
ADCP,ioos:station:wmo:42369:1,2012-06-01T20:00:00Z,27.2070,-90.2830,60.4,3.1,302.0,99.0,'11111222,11111222,11144222' 
ADCP,ioos:station:wmo:42369:1,2012-06-01T20:20:00Z,27.2070,-90.2830,60.4,3.4,297.0,99.0,'11111222,11111222,11144222' 
ADCP,ioos:station:wmo:42369:1,2012-06-01T20:40:00Z,27.2070,-90.2830,60.4,4.2,304.0,99.0,'11111222,11111222,11144222' 
ADCP,ioos:station:wmo:42369:1,2012-06-01T21:00:00Z,27.2070,-90.2830,60.4,3.8,313.0,99.0,'11111222,11111222,11144222' 
ADCP,ioos:station:wmo:42369:1,2012-06-01T21:20:00Z,27.2070,-90.2830,60.4,3.3,306.0,99.0,'11111222,11111222,11144222' 
ADCP,ioos:station:wmo:42369:1,2012-06-01T21:40:00Z,27.2070,-90.2830,60.4,1.8,267.0,99.0,'11111222,11111222,11144222' 
ADCP,ioos:station:wmo:42369:1,2012-06-01T22:00:00Z,27.2070,-90.2830,60.4,0.6,235.0,99.0,'11111222,11111222,11144222' 
ADCP,ioos:station:wmo:42369:1,2012-06-01T22:20:00Z,27.2070,-90.2830,60.4,0.3,219.0,99.0,'11111222,11111222,11144222' 
ADCP,ioos:station:wmo:42369:1,2012-06-01T22:40:00Z,27.2070,-90.2830,60.4,0.4,201.0,99.0,'11111222,11111222,11144222' 
ADCP,ioos:station:wmo:42369:1,2012-06-01T23:00:00Z,27.2070,-90.2830,60.4,0.1,207.0,99.0,'11111222,11111222,11144222' 
ADCP,ioos:station:wmo:42369:1,2012-06-01T23:20:00Z,27.2070,-90.2830,60.4,0.2,227.0,99.0,'11111222,11111222,11144222' 
ADCP,ioos:station:wmo:42369:1,2012-06-01T23:40:00Z,27.2070,-90.2830,60.4,0.4,233.0,99.0,'11111222,11111222,11144222' 
ADCP,ioos:station:wmo:42369:1,2012-06-02T00:00:00Z,27.2070,-90.2830,60.4,1.4,270.0,99.0,'11111222,11111222,11144222' 
ADCP,ioos:station:wmo:42369:1,2012-06-02T00:20:00Z,27.2070,-90.2830,60.4,3.5,288.0,99.0,'11111222,11111222,11144222' 
ADCP,ioos:station:wmo:42369:1,2012-06-02T00:40:00Z,27.2070,-90.2830,60.4,3.4,287.0,99.0,'11111222,11111222,11144222' 
ADCP,ioos:station:wmo:42369:1,2012-06-02T01:00:00Z,27.2070,-90.2830,60.4,1.6,274.0,99.0,'11111222,11111222,11144222' 
ADCP,ioos:station:wmo:42369:1,2012-06-02T01:20:00Z,27.2070,-90.2830,60.4,1.4,273.0,99.0,'11111222,11111222,11144222' 
ADCP,ioos:station:wmo:42369:1,2012-06-02T01:40:00Z,27.2070,-90.2830,60.4,1.4,263.0,99.0,'11111222,11111222,11144222' 
ADCP,ioos:station:wmo:42369:1,2012-06-02T02:00:00Z,27.2070,-90.2830,60.4,2.5,300.0,99.0,'11111222,11111222,11144222' 
ADCP,ioos:station:wmo:42369:1,2012-06-02T02:20:00Z,27.2070,-90.2830,60.4,3.2,316.0,99.0,'11111222,11111222,11144222' 
ADCP,ioos:station:wmo:42369:1,2012-06-02T02:40:00Z,27.2070,-90.2830,60.4,3.4,320.0,99.0,'11111222,11111222,11144222' 
ADCP,ioos:station:wmo:42369:1,2012-06-02T03:00:00Z,27.2070,-90.2830,60.4,3.5,327.0,99.0,'11111222,11111222,11144222' 
ADCP,ioos:station:wmo:42369:1,2012-06-02T03:20:00Z,27.2070,-90.2830,60.4,2.5,324.0,99.0,'11111222,11111222,11144222' 
ADCP,ioos:station:wmo:42369:1,2012-06-02T03:40:00Z,27.2070,-90.2830,60.4,2.3,300.0,99.0,'11111222,11111222,11144222' 
ADCP,ioos:station:wmo:42369:1,2012-06-02T04:00:00Z,27.2070,-90.2830,60.4,1.7,319.0,99.0,'11111222,11111222,11144222' 
ADCP,ioos:station:wmo:42369:1,2012-06-02T04:20:00Z,27.2070,-90.2830,60.4,1.8,287.0,99.0,'11111222,11111222,11144222' 
ADCP,ioos:station:wmo:42369:1,2012-06-02T04:40:00Z,27.2070,-90.2830,60.4,1.6,78.0,99.0,'11111222,11111222,11144222' 
ADCP,ioos:station:wmo:42369:1,2012-06-02T05:00:00Z,27.2070,-90.2830,60.4,2.0,130.0,99.0,'11111222,11111222,11144222' 
ADCP,ioos:station:wmo:42369:1,2012-06-02T05:20:00Z,27.2070,-90.2830,60.4,2.0,262.0,99.0,'11111222,11111222,11144222' 
ADCP,ioos:station:wmo:42369:1,2012-06-02T05:40:00Z,27.2070,-90.2830,60.4,2.5,346.0,99.0,'11111222,11111222,11144222' 
ADCP,ioos:station:wmo:42369:1,2012-06-02T06:00:00Z,27.2070,-90.2830,60.4,2.9,324.0,99.0,'11111222,11111222,11144222' 
ADCP,ioos:station:wmo:42369:1,2012-06-02T06:20:00Z,27.2070,-90.2830,60.4,2.6,196.0,99.0,'11111222,11111222,11144222' 
ADCP,ioos:station:wmo:42369:1,2012-06-02T06:40:00Z,27.2070,-90.2830,60.4,1.8,183.0,99.0,'11111222,11111222,11144222' 
ADCP,ioos:station:wmo:42369:1,2012-06-02T07:00:00Z,27.2070,-90.2830,60.4,1.3,113.0,99.0,'11111222,11111222,11144222' 
ADCP,ioos:station:wmo:42369:1,2012-06-02T07:20:00Z,27.2070,-90.2830,60.4,0.7,106.0,99.0,'11111222,11111222,11144222' 
ADCP,ioos:station:wmo:42369:1,2012-06-02T07:40:00Z,27.2070,-90.2830,60.4,0.8,181.0,99.0,'11111222,11111222,11144222' 
ADCP,ioos:station:wmo:42369:1,2012-06-02T08:00:00Z,27.2070,-90.2830,60.4,0.8,193.0,99.0,'11111222,11111222,11144222' 
ADCP,ioos:station:wmo:42369:1,2012-06-02T08:20:00Z,27.2070,-90.2830,60.4,0.4,221.0,99.0,'11111222,11111222,11144222' 
ADCP,ioos:station:wmo:42369:1,2012-06-02T08:40:00Z,27.2070,-90.2830,60.4,0.7,298.0,99.0,'11111222,11111222,11144222' 
ADCP,ioos:station:wmo:42369:1,2012-06-02T09:00:00Z,27.2070,-90.2830,60.4,0.5,251.0,99.0,'11111222,11111222,11144222' 
ADCP,ioos:station:wmo:42369:1,2012-06-02T09:20:00Z,27.2070,-90.2830,60.4,0.4,224.0,99.0,'11111222,11111222,11144222' 
ADCP,ioos:station:wmo:42369:1,2012-06-02T09:40:00Z,27.2070,-90.2830,60.4,0.1,223.0,99.0,'11111222,11111222,11144222' 
ADCP,ioos:station:wmo:42369:1,2012-06-02T10:00:00Z,27.2070,-90.2830,60.4,0.1,217.0,99.0,'11111222,11111222,11144222' 
ADCP,ioos:station:wmo:42369:1,2012-06-02T10:20:00Z,27.2070,-90.2830,60.4,0.3,199.0,99.0,'11111222,11111222,11144222' 
ADCP,ioos:station:wmo:42369:1,2012-06-02T10:40:00Z,27.2070,-90.2830,60.4,0.7,269.0,99.0,'11111222,11111222,11144222' 
ADCP,ioos:station:wmo:42369:1,2012-06-02T11:00:00Z,27.2070,-90.2830,60.4,0.5,274.0,99.0,'11111222,11111222,11144222' 
ADCP,ioos:station:wmo:42369:1,2012-06-02T11:20:00Z,27.2070,-90.2830,60.4,0.3,204.0,99.0,'11111222,11111222,11144222' 
ADCP,ioos:station:wmo:42369:1,2012-06-02T11:40:00Z,27.2070,-90.2830,60.4,0.3,214.0,99.0,'11111222,11111222,11144222' 
ADCP,ioos:station:wmo:42369:1,2012-06-02T12:00:00Z,27.2070,-90.2830,60.4,0.2,224.0,99.0,'11111222,11111222,11144222' 
ADCP,ioos:station:wmo:42369:1,2012-06-02T12:20:00Z,27.2070,-90.2830,60.4,0.1,228.0,99.0,'11111222,11111222,11144222' 
ADCP,ioos:station:wmo:42369:1,2012-06-02T12:40:00Z,27.2070,-90.2830,60.4,0.1,226.0,99.0,'11111222,11111222,11144222' 
ADCP,ioos:station:wmo:42369:1,2012-06-02T13:00:00Z,27.2070,-90.2830,60.4,0.2,220.0,99.0,'11111222,11111222,11144222' 
ADCP,ioos:station:wmo:42369:1,2012-06-02T13:20:00Z,27.2070,-90.2830,60.4,0.1,237.0,99.0,'11111222,11111222,11144222' 
ADCP,ioos:station:wmo:42369:1,2012-06-02T13:40:00Z,27.2070,-90.2830,60.4,0.1,239.0,99.0,'11111222,11111222,11144222' 
ADCP,ioos:station:wmo:42369:1,2012-06-02T14:00:00Z,27.2070,-90.2830,60.4,0.1,261.0,99.0,'11111222,11111222,11144222' 
ADCP,ioos:station:wmo:42369:1,2012-06-02T14:20:00Z,27.2070,-90.2830,60.4,0.1,229.0,99.0,'11111222,11111222,11144222' 
ADCP,ioos:station:wmo:42369:1,2012-06-02T14:40:00Z,27.2070,-90.2830,60.4,0.2,205.0,99.0,'11111222,11111222,11144222' 
ADCP,ioos:station:wmo:42369:1,2012-06-02T15:00:00Z,27.2070,-90.2830,60.4,0.6,276.0,99.0,'11111222,11111222,11144222' 
ADCP,ioos:station:wmo:42369:1,2012-06-02T15:20:00Z,27.2070,-90.2830,60.4,1.5,134.0,99.0,'11111222,11111222,11144222' 
ADCP,ioos:station:wmo:42369:1,2012-06-02T15:40:00Z,27.2070,-90.2830,60.4,1.1,64.0,99.0,'11111222,11111222,11144222' 
ADCP,ioos:station:wmo:42369:1,2012-06-02T16:00:00Z,27.2070,-90.2830,60.4,1.3,232.0,99.0,'11111222,11111222,11144222' 
ADCP,ioos:station:wmo:42369:1,2012-06-02T16:20:00Z,27.2070,-90.2830,60.4,0.9,304.0,99.0,'11111222,11111222,11144222' 
ADCP,ioos:station:wmo:42369:1,2012-06-02T16:40:00Z,27.2070,-90.2830,60.4,1.2,246.0,99.0,'11111222,11111222,11144222' 
ADCP,ioos:station:wmo:42369:1,2012-06-02T17:00:00Z,27.2070,-90.2830,60.4,1.7,127.0,99.0,'11111222,11111222,11144222' 
ADCP,ioos:station:wmo:42369:1,2012-06-02T17:20:00Z,27.2070,-90.2830,60.4,1.8,244.0,99.0,'11111222,11111222,11144222' 
ADCP,ioos:station:wmo:42369:1,2012-06-02T17:40:00Z,27.2070,-90.2830,60.4,1.3,55.0,99.0,'11111222,11111222,11144222' 
ADCP,ioos:station:wmo:42369:1,2012-06-02T18:00:00Z,27.2070,-90.2830,60.4,1.1,30.0,99.0,'11111222,11111222,11144222' 
ADCP,ioos:station:wmo:42369:1,2012-06-02T18:20:00Z,27.2070,-90.2830,60.4,1.0,53.0,99.0,'11111222,11111222,11144222' 
ADCP,ioos:station:wmo:42369:1,2012-06-02T18:40:00Z,27.2070,-90.2830,60.4,1.1,63.0,99.0,'11111222,11111222,11144222' 
ADCP,ioos:station:wmo:42369:1,2012-06-02T19:00:00Z,27.2070,-90.2830,60.4,0.6,88.0,99.0,'11111222,11111222,11144222' 
ADCP,ioos:station:wmo:42369:1,2012-06-02T19:20:00Z,27.2070,-90.2830,60.4,0.9,81.0,99.0,'11111222,11111222,11144222' 
ADCP,ioos:station:wmo:42369:1,2012-06-02T19:40:00Z,27.2070,-90.2830,60.4,0.9,85.0,99.0,'11111222,11111222,11144222' 
ADCP,ioos:station:wmo:42369:1,2012-06-02T20:00:00Z,27.2070,-90.2830,60.4,0.9,87.0,99.0,'11111222,11111222,11144222' 
ADCP,ioos:station:wmo:42369:1,2012-06-02T20:20:00Z,27.2070,-90.2830,60.4,1.0,115.0,99.0,'11111222,11111222,11144222' 
ADCP,ioos:station:wmo:42369:1,2012-06-02T20:40:00Z,27.2070,-90.2830,60.4,0.8,113.0,99.0,'11111222,11111222,11144222' 
ADCP,ioos:station:wmo:42369:1,2012-06-02T21:00:00Z,27.2070,-90.2830,60.4,0.7,113.0,99.0,'11111222,11111222,11144222' 
ADCP,ioos:station:wmo:42369:1,2012-06-02T21:20:00Z,27.2070,-90.2830,60.4,1.0,233.0,99.0,'11111222,11111222,11144222' 
ADCP,ioos:station:wmo:42369:1,2012-06-02T21:40:00Z,27.2070,-90.2830,60.4,1.0,251.0,99.0,'11111222,11111222,11144222' 
ADCP,ioos:station:wmo:42369:1,2012-06-02T22:00:00Z,27.2070,-90.2830,60.4,1.5,265.0,99.0,'11111222,11111222,11144222' 
ADCP,ioos:station:wmo:42369:1,2012-06-02T22:20:00Z,27.2070,-90.2830,60.4,1.8,82.0,99.0,'11111222,11111222,11144222' 
ADCP,ioos:station:wmo:42369:1,2012-06-02T22:40:00Z,27.2070,-90.2830,60.4,1.4,110.0,99.0,'11111222,11111222,11144222' 
ADCP,ioos:station:wmo:42369:1,2012-06-02T23:00:00Z,27.2070,-90.2830,60.4,1.7,109.0,99.0,'11111222,11111222,11144222' 
ADCP,ioos:station:wmo:42369:1,2012-06-02T23:20:00Z,27.2070,-90.2830,60.4,1.6,104.0,99.0,'11111222,11111222,11144222' 
ADCP,ioos:station:wmo:42369:1,2012-06-02T23:40:00Z,27.2070,-90.2830,60.4,1.7,96.0,99.0,'11111222,11111222,11144222' 
ADCP,ioos:station:wmo:42369:1,2012-06-03T00:00:00Z,27.2070,-90.2830,60.4,1.8,101.0,99.0,'11111222,11111222,11144222' 
ADCP,ioos:station:wmo:42369:1,2012-06-03T00:20:00Z,27.2070,-90.2830,60.4,2.2,91.0,99.0,'11111222,11111222,11144222' 
ADCP,ioos:station:wmo:42369:1,2012-06-03T00:40:00Z,27.2070,-90.2830,60.4,2.0,107.0,99.0,'11111222,11111222,11144222' 
ADCP,ioos:station:wmo:42369:1,2012-06-03T01:00:00Z,27.2070,-90.2830,60.4,2.2,111.0,99.0,'11111222,11111222,11144222' 
ADCP,ioos:station:wmo:42369:1,2012-06-03T01:20:00Z,27.2070,-90.2830,60.4,2.3,113.0,99.0,'11111222,11111222,11144222' 
ADCP,ioos:station:wmo:42369:1,2012-06-03T01:40:00Z,27.2070,-90.2830,60.4,2.4,104.0,99.0,'11111222,11111222,11144222' 
ADCP,ioos:station:wmo:42369:1,2012-06-03T02:00:00Z,27.2070,-90.2830,60.4,2.9,109.0,99.0,'11111222,11111222,11144222' 
ADCP,ioos:station:wmo:42369:1,2012-06-03T02:20:00Z,27.2070,-90.2830,60.4,3.1,110.0,99.0,'11111222,11111222,11144222' 
ADCP,ioos:station:wmo:42369:1,2012-06-03T02:40:00Z,27.2070,-90.2830,60.4,3.3,109.0,99.0,'11111222,11111222,11144222' 
ADCP,ioos:station:wmo:42369:1,2012-06-03T03:00:00Z,27.2070,-90.2830,60.4,3.2,111.0,99.0,'11111222,11111222,11144222' 
ADCP,ioos:station:wmo:42369:1,2012-06-03T03:20:00Z,27.2070,-90.2830,60.4,3.7,119.0,99.0,'11111222,11111222,11144222' 
ADCP,ioos:station:wmo:42369:1,2012-06-03T03:40:00Z,27.2070,-90.2830,60.4,3.0,115.0,99.0,'11111222,11111222,11144222' 
ADCP,ioos:station:wmo:42369:1,2012-06-03T04:00:00Z,27.2070,-90.2830,60.4,3.2,118.0,99.0,'11111222,11111222,11144222' 
ADCP,ioos:station:wmo:42369:1,2012-06-03T04:20:00Z,27.2070,-90.2830,60.4,3.4,123.0,99.0,'11111222,11111222,11144222' 
ADCP,ioos:station:wmo:42369:1,2012-06-03T04:40:00Z,27.2070,-90.2830,60.4,3.1,127.0,99.0,'11111222,11111222,11144222' 
ADCP,ioos:station:wmo:42369:1,2012-06-03T05:00:00Z,27.2070,-90.2830,60.4,3.1,130.0,99.0,'11111222,11111222,11144222' 
ADCP,ioos:station:wmo:42369:1,2012-06-03T05:20:00Z,27.2070,-90.2830,60.4,3.1,131.0,99.0,'11111222,11111222,11144222' 
ADCP,ioos:station:wmo:42369:1,2012-06-03T05:40:00Z,27.2070,-90.2830,60.4,2.8,147.0,99.0,'11111222,11111222,11144222' 
ADCP,ioos:station:wmo:42369:1,2012-06-03T06:00:00Z,27.2070,-90.2830,60.4,2.8,150.0,99.0,'11111222,11111222,11144222' 
ADCP,ioos:station:wmo:42369:1,2012-06-03T06:20:00Z,27.2070,-90.2830,60.4,3.4,158.0,99.0,'11111222,11111222,11144222' 
ADCP,ioos:station:wmo:42369:1,2012-06-03T06:40:00Z,27.2070,-90.2830,60.4,3.9,166.0,99.0,'11111222,11111222,11144222' 
ADCP,ioos:station:wmo:42369:1,2012-06-03T07:00:00Z,27.2070,-90.2830,60.4,4.4,171.0,99.0,'11111222,11111222,11144222' 
ADCP,ioos:station:wmo:42369:1,2012-06-03T07:20:00Z,27.2070,-90.2830,60.4,4.1,162.0,99.0,'11111222,11111222,11144222' 
ADCP,ioos:station:wmo:42369:1,2012-06-03T07:40:00Z,27.2070,-90.2830,60.4,4.0,159.0,99.0,'11111222,11111222,11144222' 
ADCP,ioos:station:wmo:42369:1,2012-06-03T08:00:00Z,27.2070,-90.2830,60.4,3.9,160.0,99.0,'11111222,11111222,11144222' 
ADCP,ioos:station:wmo:42369:1,2012-06-03T08:20:00Z,27.2070,-90.2830,60.4,3.9,162.0,99.0,'11111222,11111222,11144222' 
ADCP,ioos:station:wmo:42369:1,2012-06-03T08:40:00Z,27.2070,-90.2830,60.4,4.8,173.0,99.0,'11111222,11111222,11144222' 
ADCP,ioos:station:wmo:42369:1,2012-06-03T09:00:00Z,27.2070,-90.2830,60.4,5.2,179.0,99.0,'11111222,11111222,11144222' 
ADCP,ioos:station:wmo:42369:1,2012-06-03T09:20:00Z,27.2070,-90.2830,60.4,5.4,184.0,99.0,'11111222,11111222,11144222' 
ADCP,ioos:station:wmo:42369:1,2012-06-03T09:40:00Z,27.2070,-90.2830,60.4,4.2,190.0,99.0,'11111222,11111222,11144222' 
ADCP,ioos:station:wmo:42369:1,2012-06-03T10:00:00Z,27.2070,-90.2830,60.4,4.0,199.0,99.0,'11111222,11111222,11144222' 
ADCP,ioos:station:wmo:42369:1,2012-06-03T10:20:00Z,27.2070,-90.2830,60.4,3.9,190.0,99.0,'11111222,11111222,11144222' 
ADCP,ioos:station:wmo:42369:1,2012-06-03T10:40:00Z,27.2070,-90.2830,60.4,3.7,190.0,99.0,'11111222,11111222,11144222' 
ADCP,ioos:station:wmo:42369:1,2012-06-03T11:00:00Z,27.2070,-90.2830,60.4,4.2,189.0,99.0,'11111222,11111222,11144222' 
ADCP,ioos:station:wmo:42369:1,2012-06-03T11:20:00Z,27.2070,-90.2830,60.4,4.0,194.0,99.0,'11111222,11111222,11144222' 
ADCP,ioos:station:wmo:42369:1,2012-06-03T11:40:00Z,27.2070,-90.2830,60.4,3.5,190.0,99.0,'11111222,11111222,11144222' 
ADCP,ioos:station:wmo:42369:1,2012-06-03T12:00:00Z,27.2070,-90.2830,60.4,3.3,192.0,99.0,'11111222,11111222,11144222' 
ADCP,ioos:station:wmo:42369:1,2012-06-03T12:20:00Z,27.2070,-90.2830,60.4,3.2,194.0,99.0,'11111222,11111222,11144222' 
ADCP,ioos:station:wmo:42369:1,2012-06-03T12:40:00Z,27.2070,-90.2830,60.4,3.2,187.0,99.0,'11111222,11111222,11144222' 
ADCP,ioos:station:wmo:42369:1,2012-06-03T13:00:00Z,27.2070,-90.2830,60.4,3.2,184.0,99.0,'11111222,11111222,11144222' 
ADCP,ioos:station:wmo:42369:1,2012-06-03T13:20:00Z,27.2070,-90.2830,60.4,3.4,193.0,99.0,'11111222,11111222,11144222' 
ADCP,ioos:station:wmo:42369:1,2012-06-03T13:40:00Z,27.2070,-90.2830,60.4,3.7,189.0,99.0,'11111222,11111222,11144222' 
ADCP,ioos:station:wmo:42369:1,2012-06-03T14:00:00Z,27.2070,-90.2830,60.4,4.1,186.0,99.0,'11111222,11111222,11144222' 
ADCP,ioos:station:wmo:42369:1,2012-06-03T14:20:00Z,27.2070,-90.2830,60.4,2.6,185.0,99.0,'11111222,11111222,11144222' 
ADCP,ioos:station:wmo:42369:1,2012-06-03T14:40:00Z,27.2070,-90.2830,60.4,2.4,191.0,99.0,'11111222,11111222,11144222' 
ADCP,ioos:station:wmo:42369:1,2012-06-03T15:00:00Z,27.2070,-90.2830,60.4,2.3,191.0,99.0,'11111222,11111222,11144222' 
ADCP,ioos:station:wmo:42369:1,2012-06-03T15:20:00Z,27.2070,-90.2830,60.4,2.6,180.0,99.0,'11111222,11111222,11144222' 
ADCP,ioos:station:wmo:42369:1,2012-06-03T15:40:00Z,27.2070,-90.2830,60.4,2.8,185.0,99.0,'11111222,11111222,11144222' 
ADCP,ioos:station:wmo:42369:1,2012-06-03T16:00:00Z,27.2070,-90.2830,60.4,1.8,190.0,99.0,'11111222,11111222,11144222' 
ADCP,ioos:station:wmo:42369:1,2012-06-03T16:20:00Z,27.2070,-90.2830,60.4,1.8,190.0,99.0,'11111222,11111222,11144222' 
ADCP,ioos:station:wmo:42369:1,2012-06-03T16:40:00Z,27.2070,-90.2830,60.4,2.5,176.0,99.0,'11111222,11111222,11144222' 
ADCP,ioos:station:wmo:42369:1,2012-06-03T17:00:00Z,27.2070,-90.2830,60.4,1.9,174.0,99.0,'11111222,11111222,11144222' 
ADCP,ioos:station:wmo:42369:1,2012-06-03T17:20:00Z,27.2070,-90.2830,60.4,1.5,175.0,99.0,'11111222,11111222,11144222' 
ADCP,ioos:station:wmo:42369:1,2012-06-03T17:40:00Z,27.2070,-90.2830,60.4,1.8,171.0,99.0,'11111222,11111222,11144222' 
ADCP,ioos:station:wmo:42369:1,2012-06-03T18:00:00Z,27.2070,-90.2830,60.4,2.2,172.0,99.0,'11111222,11111222,11144222' 
ADCP,ioos:station:wmo:42369:1,2012-06-03T18:20:00Z,27.2070,-90.2830,60.4,3.0,171.0,99.0,'11111222,11111222,11144222' 
ADCP,ioos:station:wmo:42369:1,2012-06-03T18:40:00Z,27.2070,-90.2830,60.4,3.3,172.0,99.0,'11111222,11111222,11144222' 
ADCP,ioos:station:wmo:42369:1,2012-06-03T19:00:00Z,27.2070,-90.2830,60.4,3.4,175.0,99.0,'11111222,11111222,11144222' 